Tracking 32579 objects as of 15-Dec-2025
HD Live streaming from Space Station
objects crossing your sky now

ONEWEB-0675

Track ONEWEB-0675 now!
10-day predictions
ONEWEB-0675 is classified as:


NORAD ID: 55834
Int'l Code: 2023-029AQ
Perigee: 1,191.8 km
Apogee: 1,194.1 km
Inclination: 87.9 °
Period: 109.1 minutes
Semi major axis: 7563 km
RCS: Unknown
Launch date: March 9, 2023
Source: United Kingdom (UK)
Launch site: AIR FORCE EASTERN TEST RANGE (AFETR)
Your satellite tracking list
Your tracking list is empty




NASA's NSSDC Master Catalog

Two Line Element Set (TLE):
1 55834U 23029AQ  25348.97243698  .00000045  00000-0  80087-4 0  9997
2 55834  87.9192 341.6421 0001512  85.0441 275.0864 13.19724785134620
Source of the keplerian elements: AFSPC